When you browse on this site, cookies collect data to enhance your experience and personalize the content and advertising you see.
Visit our Privacy Policy to learn more. By continuing to use the site, you agree to this use of cookies and data.
  • In Hungary
  • List of Countries
  • For 7 days
  • Water Temperature
  • Satellite Maps
  • Weather Map
  • News
  • Weather Widgets
  • user-avatar
    Login

    Hourly Weather Jezewice

    Today, 19 December, Wednesday

    Time Temperature Precipitation Wind Pressure Humidity
    00:00 -1°C° 0 mm 3 mps 763 mmHg 95%
    01:00 -1°C° 0 mm 3 mps 763 mmHg 94%
    02:00 -1°C° 0 mm 3 mps 763 mmHg 93%
    03:00 -1°C° 0 mm 3 mps 763 mmHg 92%
    04:00 -2°C° 0 mm 4 mps 762 mmHg 90%
    05:00 -2°C° 0 mm 4 mps 762 mmHg 90%
    06:00 -3°C° 0 mm 4 mps 762 mmHg 89%
    07:00 -3°C° 0 mm 4 mps 762 mmHg 89%
    08:00 -3°C° 0 mm 4 mps 762 mmHg 87%
    09:00 -4°C° 0 mm 5 mps 762 mmHg 84%
    10:00 -2°C° 0 mm 5 mps 761 mmHg 82%
    11:00 -2°C° 0 mm 5 mps 761 mmHg 81%
    12:00 -2°C° 0 mm 5 mps 761 mmHg 80%
    13:00 -2°C° 0 mm 5 mps 760 mmHg 79%
    14:00 -2°C° 0 mm 5 mps 760 mmHg 80%
    15:00 -4°C° 0 mm 5 mps 759 mmHg 81%
    16:00 -4°C° 0 mm 5 mps 759 mmHg 83%
    17:00 -4°C° 0 mm 5 mps 759 mmHg 83%
    18:00 -4°C° 0 mm 5 mps 759 mmHg 83%
    19:00 -4°C° 0 mm 5 mps 758 mmHg 83%
    20:00 -4°C° 0 mm 5 mps 758 mmHg 82%
    21:00 -4°C° 0 mm 5 mps 758 mmHg 82%
    22:00 -3°C° 0 mm 4 mps 758 mmHg 82%
    23:00 -3°C° 0 mm 4 mps 758 mmHg 82%

    Tomorrow, 20 December, Thursday

    Time Temperature Precipitation Wind Pressure Humidity
    00:00 -3°C° 0 mm 4 mps 758 mmHg 82%
    01:00 -3°C° 0 mm 4 mps 758 mmHg 83%
    02:00 -3°C° 0.1 mm 4 mps 757 mmHg 84%
    03:00 -3°C° 0.1 mm 4 mps 757 mmHg 85%
    04:00 -2°C° 0.1 mm 3 mps 757 mmHg 86%
    05:00 -2°C° 0.1 mm 3 mps 757 mmHg 86%
    06:00 -2°C° 0.1 mm 3 mps 757 mmHg 87%
    07:00 -2°C° 0.1 mm 3 mps 757 mmHg 88%
    08:00 -1°C° 0.2 mm 3 mps 757 mmHg 87%
    09:00 -1°C° 0.2 mm 3 mps 757 mmHg 86%
    10:00 -1°C° 0.2 mm 3 mps 757 mmHg 85%
    11:00 -1°C° 0.1 mm 3 mps 757 mmHg 85%
    12:00 -1°C° 0.1 mm 3 mps 756 mmHg 84%
    13:00 0°C° 0.1 mm 3 mps 756 mmHg 84%
    14:00 -1°C° 0.1 mm 3 mps 756 mmHg 86%
    15:00 -1°C° 0.1 mm 3 mps 756 mmHg 88%
    16:00 -1°C° 0.1 mm 3 mps 756 mmHg 90%
    17:00 -1°C° 0.2 mm 3 mps 756 mmHg 92%
    18:00 -1°C° 0.2 mm 3 mps 756 mmHg 93%
    19:00 -1°C° 0.2 mm 3 mps 756 mmHg 94%
    20:00 -1°C° 0.2 mm 3 mps 756 mmHg 95%
    21:00 0°C° 0.2 mm 3 mps 756 mmHg 95%
    22:00 0°C° 0.2 mm 3 mps 756 mmHg 95%
    23:00 0°C° 0 mm 3 mps 755 mmHg 95%

    Day after tomorrow, 21 December, Friday

    Time Temperature Precipitation Wind Pressure Humidity
    00:00 0°C° 0 mm 3 mps 755 mmHg 95%
    01:00 0°C° 0 mm 3 mps 755 mmHg 94%
    02:00 0°C° 0 mm 3 mps 755 mmHg 94%
    03:00 0°C° 0 mm 3 mps 755 mmHg 94%
    04:00 0°C° 0 mm 3 mps 754 mmHg 94%
    05:00 0°C° 0 mm 3 mps 754 mmHg 95%
    06:00 0°C° 0 mm 3 mps 754 mmHg 95%
    07:00 0°C° 0 mm 3 mps 753 mmHg 95%
    08:00 0°C° 0 mm 3 mps 753 mmHg 95%
    09:00 +1°C° 0 mm 3 mps 753 mmHg 95%
    10:00 0°C° 0 mm 4 mps 753 mmHg 95%
    11:00 +1°C° 0 mm 3 mps 752 mmHg 95%
    12:00 +1°C° 0 mm 3 mps 751 mmHg 95%
    13:00 +1°C° 0 mm 3 mps 751 mmHg 95%
    14:00 +1°C° 0 mm 3 mps 750 mmHg 95%
    15:00 0°C° 0 mm 4 mps 750 mmHg 94%
    16:00 0°C° 0 mm 4 mps 749 mmHg 94%
    17:00 0°C° 0.1 mm 4 mps 748 mmHg 94%
    18:00 0°C° 0.1 mm 4 mps 747 mmHg 94%
    19:00 0°C° 0.1 mm 4 mps 747 mmHg 94%
    20:00 0°C° 0.9 mm 5 mps 746 mmHg 94%
    21:00 0°C° 0.9 mm 5 mps 745 mmHg 94%
    22:00 0°C° 0.9 mm 5 mps 744 mmHg 95%
    23:00 +1°C° 1 mm 6 mps 743 mmHg 93%

    22 December, Saturday

    Time Temperature Precipitation Wind Pressure Humidity
    00:00 +2°C° 1 mm 6 mps 743 mmHg 92%
    01:00 +3°C° 1 mm 6 mps 742 mmHg 90%
    02:00 +3°C° 0.2 mm 7 mps 742 mmHg 89%
    03:00 +3°C° 0.2 mm 7 mps 742 mmHg 88%
    04:00 +2°C° 0.2 mm 8 mps 743 mmHg 87%
    05:00 +3°C° 0 mm 7 mps 743 mmHg 87%
    06:00 +3°C° 0 mm 7 mps 743 mmHg 87%
    07:00 +2°C° 0 mm 6 mps 743 mmHg 86%
    08:00 +2°C° 0 mm 6 mps 743 mmHg 87%
    09:00 +3°C° 0 mm 6 mps 744 mmHg 87%
    10:00 +3°C° 0 mm 6 mps 744 mmHg 87%
    11:00 +3°C° 0.1 mm 6 mps 744 mmHg 88%
    12:00 +3°C° 0.1 mm 6 mps 744 mmHg 88%
    13:00 +4°C° 0.1 mm 6 mps 744 mmHg 89%
    14:00 +4°C° 0 mm 6 mps 744 mmHg 89%
    15:00 +3°C° 0 mm 5 mps 744 mmHg 90%
    16:00 +3°C° 0 mm 5 mps 744 mmHg 90%
    17:00 +3°C° 0.1 mm 6 mps 744 mmHg 89%
    18:00 +3°C° 0.1 mm 6 mps 745 mmHg 89%
    19:00 +3°C° 0.1 mm 6 mps 745 mmHg 89%
    20:00 +3°C° 0.1 mm 7 mps 745 mmHg 87%
    21:00 +4°C° 0.1 mm 7 mps 746 mmHg 86%
    22:00 +4°C° 0.1 mm 7 mps 746 mmHg 85%
    23:00 +3°C° 0.2 mm 7 mps 746 mmHg 85%

    23 December, Sunday

    Time Temperature Precipitation Wind Pressure Humidity
    00:00 +2°C° 0.2 mm 8 mps 747 mmHg 85%
    01:00 +2°C° 0.2 mm 8 mps 747 mmHg 85%
    02:00 +2°C° 0.2 mm 7 mps 748 mmHg 86%
    03:00 +2°C° 0.2 mm 6 mps 748 mmHg 87%
    04:00 +2°C° 0.2 mm 5 mps 749 mmHg 89%
    05:00 +1°C° 0.1 mm 4 mps 749 mmHg 90%
    06:00 +2°C° 0.1 mm 3 mps 750 mmHg 92%
    07:00 +3°C° 0.1 mm 2 mps 750 mmHg 93%
    08:00 +4°C° 0.1 mm 1 mps 751 mmHg 92%
    09:00 +4°C° 0.1 mm 1 mps 751 mmHg 91%
    10:00 +4°C° 0.1 mm 1 mps 751 mmHg 91%
    11:00 +4°C° 0.4 mm 1 mps 751 mmHg 90%
    12:00 +3°C° 0.4 mm 2 mps 752 mmHg 89%
    13:00 +4°C° 0.4 mm 2 mps 752 mmHg 88%
    14:00 +4°C° 0.3 mm 2 mps 752 mmHg 89%
    15:00 +2°C° 0.3 mm 3 mps 752 mmHg 90%
    16:00 +2°C° 0.3 mm 3 mps 753 mmHg 90%
    17:00 +3°C° 0.1 mm 2 mps 753 mmHg 91%
    18:00 +3°C° 0.1 mm 2 mps 753 mmHg 92%
    19:00 +2°C° 0.1 mm 2 mps 753 mmHg 92%
    20:00 +2°C° 0.1 mm 2 mps 753 mmHg 93%
    21:00 +1°C° 0.1 mm 2 mps 754 mmHg 93%
    22:00 +1°C° 0.1 mm 2 mps 754 mmHg 94%
    23:00 +1°C° 0.1 mm 2 mps 754 mmHg 93%

    24 December, Monday

    Time Temperature Precipitation Wind Pressure Humidity
    00:00 -1°C° 0.1 mm 2 mps 755 mmHg 93%
    01:00 -1°C° 0.1 mm 2 mps 755 mmHg 92%
    02:00 -1°C° 0 mm 2 mps 755 mmHg 92%
    03:00 -2°C° 0 mm 2 mps 756 mmHg 92%
    04:00 -2°C° 0 mm 2 mps 757 mmHg 92%
    05:00 -2°C° 0 mm 2 mps 757 mmHg 92%
    06:00 -2°C° 0 mm 2 mps 758 mmHg 92%
    07:00 -2°C° 0 mm 2 mps 758 mmHg 92%
    08:00 -1°C° 0 mm 2 mps 758 mmHg 91%
    09:00 +1°C° 0 mm 2 mps 759 mmHg 89%
    10:00 0°C° 0 mm 3 mps 759 mmHg 88%
    11:00 +1°C° 0.1 mm 3 mps 759 mmHg 89%
    12:00 +1°C° 0.1 mm 3 mps 759 mmHg 89%
    13:00 +1°C° 0.1 mm 4 mps 759 mmHg 90%
    14:00 +1°C° 0.1 mm 4 mps 759 mmHg 90%
    15:00 +1°C° 0.1 mm 4 mps 759 mmHg 91%
    16:00 +1°C° 0.1 mm 3 mps 759 mmHg 92%
    17:00 +1°C° 0.1 mm 3 mps 759 mmHg 92%
    18:00 +1°C° 0.1 mm 3 mps 759 mmHg 92%
    19:00 0°C° 0.1 mm 3 mps 759 mmHg 93%
    20:00 0°C° 0 mm 3 mps 759 mmHg 93%
    21:00 0°C° 0 mm 3 mps 759 mmHg 93%
    22:00 -1°C° 0 mm 4 mps 759 mmHg 93%
    23:00 -1°C° 0 mm 4 mps 759 mmHg 93%
    Show more